Location: Clermont
(50.2608°N, 4.3172°E)
Time: 06:18:56
(UTC+00:00)

Meteor 1-18 Rocket - Pass Details

Date: 13 August 2020
Orbit: 836 x 909 km, 81.2° (Epoch: 26 September)

Event Time Altitude Azimuth Distance (km) Brightness Sun altitude
Rises 20:31:33 0° 348° (NNW) 3,423 8.3 -12.5°
Reaches altitude 10° 20:34:00 10° 351° (N) 2,476 7.4 -12.8°
Maximum altitude 20:39:36 73° 76° (ENE) 879 4.2 -13.4°
Enters shadow 20:43:57 17° 160° (SSE) 2,001 5.6 -13.9°
